STARLINK-30057 (55705 NORAD) Tracking and Keplerian Element Data

This shows tracking and keplerian element data for the satellite.

Feedback or suggestion? Click here.




ElementValue
Catalog55705
NameSTARLINK-30057
Epoch Orbit130
Epoch Day62.91667824
Epoch Year2023
RAAN259.6123
Inclination43.0104
Eccentricity0.0001625
Argument of Perigee279.8553
Mean Anonmoly181.6289
Mean Motion15.65779728
Decay Rate-0.00796859
L11 55705U 23026L 23062.91667824 -.00796859 00000+0 -84177-2 0 9995
L22 55705 43.0104 259.6123 0001625 279.8553 181.6289 15.65779728 1303



Live tracking and technical data element details for STARLINK-30057 (NORAD 55705). STARLINK-30057 can be tracked NOW for your location showing map with azimuth and elevation plus other details from your city location.







IsCatalogInMostPopularTable: catalog: 55705, numindb: 1
Update: records affected: 1



GetName: 55705 STARLINK-30057

Hit Count: updated at: Wed, 22 Mar 2023 16:05:57 GMT